FIN7AT EFOU-EFHK

Flight info

Callsign FIN7AT
Flight time 0h 45m
Altitude 31000
Route MIKNU Y86 LUSEP
Aircraft A320/M-SDE1E2E3FGIJ1M1RWXY/LB1

Departure

Time 2026-04-22 17:29
Airport Oulu Airport (EFOU)

Arrival

Time 2026-04-22 18:14
Airport Helsinki Vantaa Airport (EFHK)
Time Latitude Longitude Altitude Speed Heading
2026-04-22 17:01 64.92787 25.37468 48 ft 0 kts 31°
2026-04-22 17:01 64.92786 25.37467 48 ft 0 kts 31°
2026-04-22 17:21 64.92780 25.37457 48 ft 4 kts 32°
2026-04-22 17:22 64.92739 25.37378 43 ft 4 kts 58°
2026-04-22 17:22 64.92732 25.37327 48 ft 3 kts 114°
2026-04-22 17:22 64.92733 25.37318 47 ft 0 kts 121°
2026-04-22 17:26 64.92730 25.37330 49 ft 4 kts 121°
2026-04-22 17:26 64.92695 25.37465 48 ft 14 kts 121°
2026-04-22 17:26 64.92644 25.37666 44 ft 14 kts 121°
2026-04-22 17:27 64.92593 25.37866 44 ft 14 kts 122°
2026-04-22 17:27 64.92517 25.37936 44 ft 12 kts 205°
2026-04-22 17:27 64.92472 25.37773 43 ft 12 kts 251°
2026-04-22 17:27 64.92461 25.37633 44 ft 6 kts 284°
2026-04-22 17:28 64.92468 25.37603 43 ft 1 kts 298°
2026-04-22 17:28 64.92503 25.37458 47 ft 34 kts 301°
2026-04-22 17:28 64.92754 25.36481 53 ft 102 kts 300°
2026-04-22 17:28 64.93211 25.34708 229 ft 136 kts 306°
2026-04-22 17:29 64.93688 25.32795 806 ft 138 kts 308°
2026-04-22 17:29 64.94190 25.30857 1512 ft 138 kts 311°
2026-04-22 17:29 64.94687 25.28919 2162 ft 138 kts 311°
2026-04-22 17:29 64.95179 25.26962 2801 ft 140 kts 311°
2026-04-22 17:30 64.95716 25.24870 3178 ft 160 kts 311°
2026-04-22 17:30 64.96123 25.22163 3506 ft 199 kts 277°
2026-04-22 17:30 64.95563 25.18888 3862 ft 240 kts 233°
2026-04-22 17:30 64.94167 25.16285 4227 ft 272 kts 213°
2026-04-22 17:31 64.92433 25.14112 4855 ft 289 kts 207°
2026-04-22 17:31 64.90496 25.12684 5683 ft 298 kts 186°
2026-04-22 17:31 64.88409 25.12657 6494 ft 303 kts 170°
2026-04-22 17:31 64.86351 25.13793 7299 ft 306 kts 158°
2026-04-22 17:32 64.84293 25.15298 8125 ft 313 kts 159°
2026-04-22 17:32 64.82217 25.16777 8981 ft 319 kts 159°
2026-04-22 17:32 64.80078 25.18286 9869 ft 323 kts 159°
2026-04-22 17:32 64.77876 25.19851 10321 ft 342 kts 159°
2026-04-22 17:33 64.76307 25.20979 10502 ft 358 kts 159°
2026-04-22 17:33 64.73060 25.23324 11102 ft 377 kts 159°
2026-04-22 17:33 64.70516 25.25153 11759 ft 386 kts 159°
2026-04-22 17:33 64.67924 25.27004 12425 ft 393 kts 159°
2026-04-22 17:34 64.65282 25.28889 13090 ft 401 kts 159°
2026-04-22 17:34 64.62591 25.30813 13734 ft 408 kts 159°
2026-04-22 17:34 64.59847 25.32777 14294 ft 415 kts 159°
2026-04-22 17:34 64.57060 25.34772 14852 ft 423 kts 159°
2026-04-22 17:35 64.54230 25.36794 15394 ft 430 kts 159°
2026-04-22 17:35 64.51345 25.38846 15933 ft 437 kts 159°
2026-04-22 17:35 64.48404 25.40929 16481 ft 444 kts 159°
2026-04-22 17:35 64.45378 25.42720 17010 ft 454 kts 167°
2026-04-22 17:36 64.42201 25.43540 17529 ft 463 kts 178°
2026-04-22 17:36 64.38957 25.43449 18064 ft 469 kts 182°
2026-04-22 17:36 64.35673 25.43241 18499 ft 476 kts 182°
2026-04-22 17:36 64.32353 25.43046 19038 ft 479 kts 182°
2026-04-22 17:37 64.29002 25.42858 19675 ft 483 kts 182°
2026-04-22 17:37 64.25666 25.42676 20137 ft 489 kts 182°
2026-04-22 17:37 64.22251 25.42493 20645 ft 494 kts 182°
2026-04-22 17:37 64.18801 25.42313 21166 ft 498 kts 182°
2026-04-22 17:38 64.15277 25.42128 21698 ft 502 kts 182°
2026-04-22 17:38 64.11818 25.41946 22207 ft 506 kts 182°
2026-04-22 17:38 64.08286 25.41757 22730 ft 510 kts 182°
2026-04-22 17:38 64.04723 25.41566 23238 ft 514 kts 182°
2026-04-22 17:39 64.01134 25.41372 23645 ft 518 kts 182°
2026-04-22 17:39 63.97520 25.41180 24111 ft 519 kts 182°
2026-04-22 17:39 63.90269 25.40799 24976 ft 523 kts 182°
2026-04-22 17:40 63.86619 25.40611 25378 ft 526 kts 182°
2026-04-22 17:40 63.82952 25.40425 25774 ft 528 kts 182°
2026-04-22 17:40 63.79262 25.40241 26172 ft 530 kts 182°
2026-04-22 17:40 63.75565 25.40057 26564 ft 532 kts 182°
2026-04-22 17:41 63.71848 25.39874 26949 ft 535 kts 182°
2026-04-22 17:41 63.68125 25.39685 27267 ft 537 kts 182°
2026-04-22 17:41 63.64395 25.39481 27738 ft 536 kts 182°
2026-04-22 17:41 63.60663 25.39270 28155 ft 537 kts 182°
2026-04-22 17:42 63.58177 25.39129 28415 ft 538 kts 182°
2026-04-22 17:42 63.54423 25.38923 28838 ft 540 kts 182°
2026-04-22 17:42 63.50650 25.38722 29068 ft 546 kts 182°
2026-04-22 17:42 63.46835 25.38529 29336 ft 549 kts 182°
2026-04-22 17:43 63.43008 25.38340 29646 ft 552 kts 182°
2026-04-22 17:43 63.39166 25.38152 29946 ft 554 kts 182°
2026-04-22 17:43 63.35305 25.37967 30156 ft 556 kts 182°
2026-04-22 17:43 63.31442 25.37774 30488 ft 555 kts 182°
2026-04-22 17:44 63.27566 25.37570 30763 ft 555 kts 182°
2026-04-22 17:44 63.19965 25.37167 30849 ft 533 kts 182°
2026-04-22 17:45 63.12622 25.36797 30851 ft 525 kts 182°
2026-04-22 17:45 63.05325 25.36432 30846 ft 524 kts 182°
2026-04-22 17:46 62.98043 25.36065 30856 ft 522 kts 182°
2026-04-22 17:46 62.90832 25.35718 30830 ft 520 kts 182°
2026-04-22 17:47 62.83586 25.35367 30832 ft 520 kts 182°
2026-04-22 17:47 62.76331 25.34993 30823 ft 522 kts 182°
2026-04-22 17:48 62.69045 25.34614 30805 ft 523 kts 182°
2026-04-22 17:48 62.61768 25.34253 30823 ft 524 kts 182°
2026-04-22 17:49 62.54478 25.33899 30814 ft 523 kts 182°
2026-04-22 17:49 62.47241 25.33547 30808 ft 522 kts 182°
2026-04-22 17:50 62.39976 25.33201 30802 ft 521 kts 182°
2026-04-22 17:50 62.32735 25.32858 30790 ft 521 kts 182°
2026-04-22 17:51 62.25483 25.32525 30792 ft 520 kts 182°
2026-04-22 17:51 62.18291 25.32179 30792 ft 520 kts 182°
2026-04-22 17:52 62.11061 25.31824 30793 ft 520 kts 182°
2026-04-22 17:52 62.07443 25.31653 30623 ft 517 kts 182°
2026-04-22 17:52 62.03851 25.31488 30440 ft 517 kts 182°
2026-04-22 17:52 62.00252 25.31319 30144 ft 516 kts 182°
2026-04-22 17:53 61.96672 25.31142 29912 ft 513 kts 182°
2026-04-22 17:53 61.93109 25.30968 29636 ft 511 kts 182°
2026-04-22 17:53 61.89557 25.30801 29342 ft 510 kts 182°
2026-04-22 17:53 61.86017 25.30639 29059 ft 508 kts 182°
2026-04-22 17:54 61.82476 25.30478 28775 ft 506 kts 182°
2026-04-22 17:54 61.78969 25.30317 28507 ft 505 kts 182°
2026-04-22 17:54 61.75465 25.30154 28230 ft 503 kts 182°
2026-04-22 17:54 61.71970 25.29989 27966 ft 501 kts 182°
2026-04-22 17:55 61.68477 25.29830 27644 ft 498 kts 182°
2026-04-22 17:55 61.65028 25.29678 27382 ft 495 kts 182°
2026-04-22 17:55 61.61589 25.29526 27119 ft 493 kts 182°
2026-04-22 17:55 61.58165 25.29366 26865 ft 488 kts 182°
2026-04-22 17:56 61.54781 25.29208 26434 ft 485 kts 182°
2026-04-22 17:56 61.51416 25.29046 25987 ft 482 kts 183°
2026-04-22 17:56 61.48076 25.28879 25531 ft 479 kts 183°
2026-04-22 17:56 61.44745 25.28713 25070 ft 477 kts 183°
2026-04-22 17:57 61.41439 25.28555 24617 ft 475 kts 183°
2026-04-22 17:57 61.38132 25.28397 24090 ft 474 kts 183°
2026-04-22 17:57 61.34843 25.28242 23747 ft 471 kts 183°
2026-04-22 17:57 61.31604 25.28093 23152 ft 473 kts 183°
2026-04-22 17:58 61.28311 25.27947 22650 ft 471 kts 183°
2026-04-22 17:58 61.25051 25.27804 22169 ft 469 kts 183°
2026-04-22 17:58 61.21788 25.27662 21678 ft 467 kts 183°
2026-04-22 17:58 61.18550 25.27523 21189 ft 465 kts 183°
2026-04-22 17:59 61.15319 25.27381 20701 ft 463 kts 183°
2026-04-22 17:59 61.12105 25.27237 20239 ft 462 kts 183°
2026-04-22 17:59 61.08897 25.27089 19766 ft 460 kts 183°
2026-04-22 17:59 61.05696 25.26943 19235 ft 459 kts 183°
2026-04-22 18:00 61.03544 25.26848 18972 ft 457 kts 183°
2026-04-22 18:00 60.99345 25.26661 18374 ft 455 kts 183°
2026-04-22 18:00 60.96183 25.26521 17882 ft 454 kts 183°
2026-04-22 18:00 60.93028 25.26457 17411 ft 452 kts 181°
2026-04-22 18:01 60.89891 25.26571 16956 ft 449 kts 179°
2026-04-22 18:01 60.86783 25.26809 16571 ft 442 kts 178°
2026-04-22 18:01 60.83779 25.27095 16433 ft 426 kts 178°
2026-04-22 18:01 60.80841 25.27369 16272 ft 416 kts 178°
2026-04-22 18:02 60.77968 25.27607 15982 ft 411 kts 179°
2026-04-22 18:02 60.75122 25.27814 15665 ft 406 kts 179°
2026-04-22 18:02 60.72320 25.28001 15044 ft 400 kts 179°
2026-04-22 18:02 60.69559 25.28172 14492 ft 393 kts 179°
2026-04-22 18:03 60.66847 25.28328 13940 ft 387 kts 179°
2026-04-22 18:03 60.64186 25.28404 13449 ft 378 kts 185°
2026-04-22 18:03 60.61629 25.27565 12861 ft 367 kts 201°
2026-04-22 18:03 60.59313 25.25643 12596 ft 353 kts 216°
2026-04-22 18:04 60.57318 25.22898 12055 ft 341 kts 230°
2026-04-22 18:04 60.55710 25.19570 11633 ft 329 kts 238°
2026-04-22 18:04 60.54178 25.16118 11271 ft 328 kts 237°
2026-04-22 18:04 60.52652 25.12706 10919 ft 324 kts 237°
2026-04-22 18:05 60.51133 25.09333 10679 ft 323 kts 237°
2026-04-22 18:05 60.49618 25.05980 10430 ft 322 kts 237°
2026-04-22 18:05 60.48106 25.02640 10069 ft 320 kts 237°
2026-04-22 18:05 60.46601 24.99315 9664 ft 319 kts 237°
2026-04-22 18:06 60.45103 24.96009 9273 ft 317 kts 236°
2026-04-22 18:06 60.43618 24.92736 8890 ft 314 kts 236°
2026-04-22 18:06 60.42140 24.89475 8462 ft 314 kts 236°
2026-04-22 18:06 60.40666 24.86221 8026 ft 313 kts 235°
2026-04-22 18:07 60.39220 24.83036 7762 ft 306 kts 235°
2026-04-22 18:07 60.37803 24.79943 7626 ft 292 kts 234°
2026-04-22 18:07 60.36451 24.77004 7205 ft 282 kts 235°
2026-04-22 18:07 60.35127 24.74105 6708 ft 280 kts 235°
2026-04-22 18:08 60.33824 24.71245 6279 ft 274 kts 234°
2026-04-22 18:08 60.32539 24.68422 5679 ft 272 kts 234°
2026-04-22 18:08 60.31258 24.65609 5126 ft 274 kts 234°
2026-04-22 18:08 60.29970 24.62798 4838 ft 269 kts 234°
2026-04-22 18:09 60.28724 24.60097 4699 ft 259 kts 234°
2026-04-22 18:09 60.27390 24.57698 4582 ft 264 kts 211°
2026-04-22 18:09 60.25583 24.56933 4370 ft 274 kts 175°
2026-04-22 18:09 60.23786 24.58240 3595 ft 281 kts 139°
2026-04-22 18:10 60.22510 24.61079 3287 ft 264 kts 112°
2026-04-22 18:10 60.21918 24.64366 3175 ft 242 kts 90°
2026-04-22 18:10 60.21917 24.67629 3004 ft 226 kts 69°
2026-04-22 18:10 60.22392 24.70476 2776 ft 204 kts 52°
2026-04-22 18:11 60.23181 24.72658 2535 ft 185 kts 38°
2026-04-22 18:11 60.24026 24.74500 2324 ft 174 kts 38°
2026-04-22 18:11 60.24836 24.76263 2058 ft 168 kts 37°
2026-04-22 18:11 60.25609 24.77952 1828 ft 158 kts 37°
2026-04-22 18:12 60.26325 24.79519 1620 ft 146 kts 36°
2026-04-22 18:12 60.26980 24.80954 1440 ft 135 kts 36°
2026-04-22 18:12 60.27397 24.81862 1313 ft 132 kts 37°
2026-04-22 18:12 60.28223 24.83659 1063 ft 133 kts 38°
2026-04-22 18:13 60.28855 24.85041 883 ft 135 kts 39°
2026-04-22 18:13 60.29503 24.86456 695 ft 139 kts 39°
2026-04-22 18:13 60.30169 24.87913 504 ft 143 kts 41°
2026-04-22 18:13 60.30840 24.89391 325 ft 142 kts 41°
2026-04-22 18:14 60.31502 24.90855 158 ft 139 kts 42°
2026-04-22 18:14 60.32084 24.92066 156 ft 97 kts 48°
2026-04-22 18:14 60.32346 24.92675 171 ft 28 kts 54°
2026-04-22 18:14 60.32433 24.93027 174 ft 28 kts 74°
2026-04-22 18:15 60.32464 24.93274 174 ft 14 kts 76°
2026-04-22 18:15 60.32486 24.93462 173 ft 14 kts 78°
2026-04-22 18:15 60.32506 24.93647 172 ft 14 kts 77°
2026-04-22 18:15 60.32528 24.93836 170 ft 14 kts 76°
2026-04-22 18:16 60.32571 24.93992 170 ft 12 kts 46°
2026-04-22 18:16 60.32624 24.94106 171 ft 10 kts 47°
2026-04-22 18:16 60.32669 24.94202 172 ft 8 kts 46°
2026-04-22 18:16 60.32704 24.94279 172 ft 7 kts 47°
2026-04-22 18:17 60.32731 24.94338 173 ft 5 kts 48°
2026-04-22 18:17 60.32755 24.94393 173 ft 7 kts 48°
2026-04-22 18:17 60.32798 24.94488 174 ft 11 kts 48°
2026-04-22 18:17 60.32862 24.94631 174 ft 16 kts 47°
2026-04-22 18:18 60.32928 24.94785 177 ft 12 kts 64°
2026-04-22 18:18 60.32888 24.94911 174 ft 12 kts 149°
2026-04-22 18:18 60.32815 24.94964 176 ft 10 kts 162°
2026-04-22 18:18 60.32761 24.95000 177 ft 7 kts 162°
2026-04-22 18:19 60.32728 24.95021 178 ft 4 kts 162°
2026-04-22 18:19 60.32702 24.95038 179 ft 6 kts 162°
2026-04-22 18:19 60.32653 24.95071 180 ft 9 kts 161°
2026-04-22 18:19 60.32575 24.95120 181 ft 14 kts 162°
2026-04-22 18:20 60.32464 24.95192 179 ft 20 kts 162°
2026-04-22 18:20 60.32351 24.95270 177 ft 16 kts 156°
2026-04-22 18:20 60.32263 24.95411 175 ft 16 kts 136°
2026-04-22 18:20 60.32195 24.95534 174 ft 9 kts 137°
2026-04-22 18:21 60.32169 24.95583 173 ft 0 kts 137°
2026-04-22 18:21 60.32167 24.95587 173 ft 1 kts 137°
2026-04-22 18:21 60.32159 24.95602 173 ft 0 kts 137°
2026-04-22 18:23 60.32158 24.95604 173 ft 1 kts 137°
2026-04-22 18:23 60.32135 24.95647 173 ft 10 kts 137°
2026-04-22 18:23 60.32073 24.95762 174 ft 11 kts 137°
2026-04-22 18:24 60.31966 24.96014 170 ft 13 kts 83°
2026-04-22 18:24 60.32016 24.96151 169 ft 12 kts 46°
2026-04-22 18:24 60.32129 24.96399 168 ft 11 kts 47°
2026-04-22 18:25 60.32175 24.96500 168 ft 9 kts 47°
2026-04-22 18:25 60.32218 24.96595 168 ft 11 kts 47°
2026-04-22 18:25 60.32244 24.96723 166 ft 11 kts 117°
2026-04-22 18:26 60.32138 24.96860 164 ft 11 kts 150°
2026-04-22 18:26 60.32074 24.96935 163 ft 10 kts 150°
2026-04-22 18:26 60.32015 24.97000 163 ft 9 kts 152°
2026-04-22 18:26 60.31961 24.96983 163 ft 6 kts 243°
2026-04-22 18:27 60.31948 24.96934 163 ft 1 kts 242°
2026-04-22 18:27 60.31947 24.96931 163 ft 1 kts 242°
2026-04-22 18:27 60.31945 24.96924 163 ft 0 kts 243°
2026-04-22 18:27 60.31945 24.96922 163 ft 0 kts 243°